GFSNE_850_spd_000.txt.gz
Wind_Speed
12 13 14 15 16 16 18 19 19 23 27 25 28 25 23 24 21 24 25 23 23 26 28 29 31 37 39 39 39 38 37 38 37 36 35 34 32 32
15 16 17 18 18 19 20 20 22 24 31 30 28 26 27 26 26 27 28 28 30 31 29 29 32 34 40 42 42 43 41 41 42 39 37 37 36 34
14 17 16 17 18 19 20 22 23 24 30 34 32 28 30 31 30 30 31 33 36 36 35 34 33 34 37 43 43 44 46 43 45 45 41 37 38 36
12 14 16 16 19 19 21 22 24 25 29 32 34 34 33 32 32 34 34 34 37 37 43 42 35 33 36 40 45 46 46 45 45 47 44 41 40 39
14 16 16 17 19 19 21 23 25 26 29 31 34 36 37 34 35 34 37 38 40 46 48 49 43 34 34 38 44 47 47 46 44 48 45 43 42 41
17 17 17 17 19 21 23 25 26 27 28 29 32 37 37 35 36 38 41 40 44 48 52 56 48 40 32 35 42 47 48 47 44 46 47 45 42 39
18 18 18 19 20 24 27 26 25 28 29 30 32 34 37 36 39 39 41 44 47 51 55 54 48 51 37 30 35 44 47 48 46 47 47 48 46 44
21 21 21 23 21 20 19 23 27 28 29 30 31 31 35 39 39 40 42 46 47 43 49 57 47 46 43 38 32 34 44 47 48 46 48 48 48 44
22 23 25 24 25 22 23 26 27 26 27 28 29 32 36 38 40 42 41 46 51 58 53 59 46 47 42 41 35 36 39 41 44 46 48 47 47 46
25 25 25 26 26 25 27 26 27 27 26 27 28 31 34 37 37 37 38 44 52 48 49 52 48 47 43 40 35 39 36 37 40 42 45 47 43 45
23 24 25 26 26 27 26 27 28 26 24 26 28 31 34 31 27 27 32 43 45 52 50 45 47 45 42 42 36 39 34 34 36 39 40 43 42 42
20 23 23 26 25 22 23 24 23 21 25 28 30 33 29 24 23 24 36 45 47 58 48 42 43 37 31 37 35 39 34 31 32 36 38 39 42 39
21 20 22 23 20 19 19 20 21 22 26 30 32 30 27 24 23 26 33 43 49 54 47 44 38 31 31 21 14 36 34 32 32 35 36 40 40 40
21 21 20 19 19 21 20 19 19 24 28 28 26 26 25 23 25 25 36 43 52 40 37 28 23 23 29 27 22 23 30 31 32 34 36 39 36 39
20 18 18 19 20 20 19 17 20 25 26 23 23 23 23 26 29 29 36 38 48 37 37 17 15 17 13 17 16 16 16 28 30 32 36 38 40 43
19 18 20 21 20 18 16 17 22 22 21 22 21 22 24 26 29 29 37 40 45 48 38 14 13 19 26 10 6 16 15 11 29 30 33 36 37 39
18 19 19 17 14 14 15 20 20 18 18 19 20 22 24 26 30 28 29 35 39 47 44 25 6 15 16 14 8 9 17 18 14 27 30 33 34 36
16 18 15 12 12 15 18 17 15 15 17 19 20 22 24 26 29 28 26 29 34 40 45 40 18 2 8 13 12 12 16 22 28 19 30 32 36 36
13 14 12 13 16 16 14 13 14 16 18 19 20 20 23 23 25 25 24 25 28 33 39 43 38 19 5 7 7 13 12 19 25 24 24 26 28 29
10 11 12 14 14 11 12 14 14 16 17 17 18 18 20 21 23 22 22 21 23 26 32 37 37 33 26 16 13 14 16 18 21 22 23 22 21 20
12 12 10 9 9 11 13 14 17 17 15 14 15 16 17 19 20 20 20 19 18 19 23 28 30 32 27 26 33 25 18 16 18 18 16 15 16 17
8 7 7 8 10 11 13 15 14 11 9 9 11 13 15 18 20 19 18 19 20 14 13 15 18 18 25 34 31 31 24 33 16 13 17 15 14 12
7 6 6 8 11 12 12 10 8 7 7 7 10 12 14 17 18 19 16 14 15 17 16 13 14 19 22 26 25 31 30 31 27 36 18 12 17 15

GFSNE_850_spd_003.txt.gz
Wind_Speed
13 13 11 11 13 15 17 16 14 17 20 18 15 15 18 20 20 21 22 20 20 21 23 24 23 25 28 30 31 38 41 40 41 41 39 37 34 34
13 15 15 13 14 15 16 17 20 18 24 19 21 20 24 24 23 22 23 26 24 24 24 23 24 26 28 30 34 35 41 43 43 43 42 41 39 36
12 11 12 13 13 15 16 19 21 20 21 25 21 22 26 26 27 27 27 28 27 29 29 29 31 29 30 31 33 36 38 43 45 46 44 44 42 40
10 10 11 13 14 17 18 19 20 20 22 23 27 24 22 27 30 31 29 27 30 31 32 33 35 35 36 35 33 36 40 42 46 47 48 46 45 44
12 13 15 16 17 18 19 21 20 23 21 23 25 25 25 23 25 26 25 26 26 28 32 36 40 42 44 37 32 33 39 44 46 48 48 50 47 47
16 16 18 18 18 19 21 23 24 24 22 22 24 25 25 24 23 24 27 26 29 28 30 33 37 39 42 45 43 36 36 43 46 49 49 49 49 46
18 18 20 19 20 22 22 23 22 22 20 22 25 25 26 26 27 26 28 29 31 30 32 32 32 40 40 41 41 39 33 38 44 47 51 49 48 46
20 19 21 23 24 25 25 25 25 27 30 28 27 27 26 27 27 27 29 32 38 30 31 42 36 44 47 45 43 41 36 37 39 44 50 51 48 46
23 24 26 26 26 27 27 27 27 29 30 29 30 29 26 27 29 30 32 32 36 34 36 51 44 51 56 54 44 43 38 36 41 42 48 50 50 46
24 28 27 26 25 25 29 27 28 28 27 26 24 27 29 32 34 35 38 36 37 32 33 49 53 61 55 50 47 43 39 37 36 43 45 50 49 47
28 27 24 22 23 24 26 26 23 24 23 23 25 28 29 31 30 29 32 26 32 35 40 51 57 58 54 53 48 40 37 35 36 44 44 47 47 47
26 25 21 22 23 23 22 21 21 21 23 24 26 28 26 24 23 20 22 26 31 44 48 50 53 49 49 45 34 26 27 32 35 43 42 45 46 45
25 21 23 22 22 20 19 20 22 21 21 23 25 20 19 20 17 17 22 23 32 44 47 48 50 48 39 41 32 27 23 26 31 40 40 43 45 46
20 22 22 20 20 19 19 21 19 17 20 22 16 16 18 19 21 24 26 26 30 39 43 46 44 42 35 32 30 26 18 22 33 37 37 40 43 45
19 19 21 19 19 20 21 19 16 17 20 17 15 17 21 23 25 28 29 29 31 37 39 40 40 31 23 26 25 20 24 20 34 32 33 38 43 48
20 20 20 21 20 19 16 15 16 19 19 17 18 20 22 22 24 28 29 28 32 39 37 38 31 20 16 19 22 25 20 14 30 32 31 33 39 43
19 20 19 17 14 11 12 14 17 16 14 16 17 18 20 21 23 26 25 25 29 36 41 43 32 16 9 13 19 22 12 12 14 29 31 33 35 40
17 16 12 11 8 9 11 12 11 12 14 17 17 18 18 20 22 24 21 21 27 31 35 43 40 32 21 9 11 18 18 8 11 12 18 29 35 40
12 11 9 9 9 10 10 9 10 14 16 17 17 16 17 18 20 19 19 21 26 24 28 34 39 37 32 28 19 15 13 8 12 19 20 20 32 37
11 10 9 11 11 8 7 10 13 15 15 15 13 13 14 16 17 18 17 23 25 21 23 28 31 33 34 24 22 19 11 14 13 13 23 25 26 31
11 11 9 8 7 8 10 12 14 14 13 11 10 11 13 15 16 17 17 19 20 24 20 21 23 23 24 33 34 26 17 20 7 16 19 26 21 26
8 7 6 7 8 9 11 13 12 9 7 7 8 9 11 13 15 17 17 17 18 22 22 17 17 21 26 29 32 33 27 23 23 4 13 15 22 17
7 7 7 7 9 11 12 9 6 5 4 4 6 9 11 13 14 15 16 16 15 19 22 20 19 18 19 26 31 38 29 33 36 20 14 16 12 12

GFSNE_850_spd_006.txt.gz
Wind_Speed
9 9 10 10 11 12 13 13 14 17 16 14 15 13 13 14 15 16 16 17 20 20 18 18 18 19 20 20 21 24 28 32 35 39 39 39 39 38
9 10 11 10 12 12 12 13 14 18 22 17 16 16 17 17 16 19 17 21 21 23 21 20 21 21 22 23 24 25 27 29 34 37 42 42 42 42
11 12 11 12 10 11 11 14 15 15 20 23 19 18 18 19 19 20 21 21 21 23 26 28 24 26 25 26 24 26 29 31 32 37 40 45 44 45
13 13 11 10 11 12 13 13 16 15 20 23 23 21 20 20 20 22 23 22 22 23 29 29 26 27 28 27 27 26 27 30 33 36 40 43 48 47
14 13 13 13 14 13 15 15 16 17 20 22 22 21 23 21 22 25 21 25 22 22 26 27 32 33 31 31 32 37 35 31 32 37 40 44 47 50
16 15 15 15 15 15 16 16 17 18 21 22 23 24 22 25 25 24 24 25 26 26 28 31 31 32 32 29 36 38 38 42 39 34 40 44 48 51
17 17 17 17 17 18 18 19 23 22 23 24 26 26 28 25 25 26 27 27 28 28 29 30 32 31 30 33 35 38 44 48 51 46 40 42 47 49
16 17 19 19 24 22 22 24 25 27 28 26 27 29 29 25 24 25 27 28 32 26 32 34 31 34 34 35 42 49 55 58 54 47 44 42 44 49
18 20 21 23 22 25 25 24 25 27 28 29 24 24 25 23 24 27 26 29 33 34 33 35 28 35 38 43 51 52 56 57 52 45 43 45 45 46
24 23 25 23 24 26 25 20 24 24 20 22 21 22 21 25 30 31 32 32 32 28 27 35 32 38 46 48 55 57 51 45 42 42 41 44 47 48
26 30 34 35 24 25 23 24 23 21 18 22 25 24 26 28 29 28 24 24 27 28 26 32 36 43 50 62 56 48 37 34 31 36 40 43 45 47
27 30 28 21 21 22 22 22 17 16 16 18 20 19 22 21 24 25 24 24 27 31 29 32 38 45 50 52 50 48 38 30 33 28 35 40 43 44
23 19 14 16 16 20 21 21 18 20 21 20 18 20 20 19 19 19 20 22 26 30 30 32 41 47 44 47 54 48 33 29 26 32 31 40 45 47
17 10 18 19 19 20 20 21 19 19 15 16 18 19 19 20 20 20 24 24 25 30 31 33 38 43 49 52 50 44 31 31 32 24 27 33 41 46
10 15 18 19 19 19 20 17 16 12 14 15 18 18 18 19 21 22 23 27 26 26 26 30 35 44 45 47 43 36 33 32 28 20 26 26 38 46
15 16 16 16 16 15 17 11 8 10 13 15 15 16 17 18 20 21 24 24 24 25 25 26 31 41 43 33 25 27 25 25 27 17 23 29 29 39
11 8 9 9 10 10 9 9 10 10 11 12 15 17 17 18 19 20 22 21 23 26 29 28 36 37 38 29 26 26 26 21 16 16 25 27 27 34
12 9 10 11 10 10 10 10 10 11 11 13 14 16 17 18 19 20 19 19 22 24 30 30 34 41 43 42 22 32 29 25 13 12 14 25 30 32
7 9 9 9 9 9 10 9 9 11 14 12 14 15 15 16 18 18 19 19 21 22 29 27 30 37 39 34 32 31 32 27 18 12 12 8 18 28
6 7 8 9 9 9 8 8 10 11 11 12 13 12 13 14 15 17 18 19 21 22 28 24 26 27 29 31 31 31 24 21 15 14 9 10 13 16
7 7 8 8 7 7 8 8 10 10 11 9 9 10 10 12 13 15 17 19 19 18 23 26 23 24 25 28 38 35 25 12 17 9 10 17 14 17
6 6 7 7 7 7 7 8 8 8 8 8 8 8 9 11 13 15 16 18 17 18 22 24 21 17 23 32 35 36 36 22 13 21 14 6 14 13
7 6 8 7 7 6 7 7 6 6 6 6 7 8 9 11 12 13 15 16 16 18 18 18 19 17 19 24 29 35 43 41 31 28 25 14 11 16

GFSNE_850_spd_009.txt.gz
Wind_Speed
9 10 8 7 7 7 8 7 9 12 15 14 11 8 11 11 9 15 17 17 21 23 21 21 20 21 21 21 22 22 24 24 25 28 31 33 37 37
9 10 12 9 8 9 10 9 10 12 16 13 13 14 14 14 18 22 20 21 22 22 25 23 22 21 23 25 25 25 26 26 28 28 29 32 34 38
12 14 13 12 8 8 9 9 10 12 16 18 18 18 19 20 20 19 19 21 23 23 23 26 31 30 27 26 26 27 27 28 27 29 31 32 34 37
16 15 14 11 13 10 8 12 12 15 16 19 21 20 19 21 21 24 23 21 22 21 26 27 23 23 26 29 30 29 27 28 28 25 27 32 36 37
17 17 15 14 15 14 15 15 14 15 15 19 20 22 23 24 23 23 27 24 25 25 28 27 25 26 32 35 33 31 28 29 32 31 32 31 33 38
19 18 17 18 17 17 16 18 18 17 17 21 21 22 22 26 23 22 27 27 25 25 25 26 29 33 32 32 35 32 32 34 34 35 39 47 44 41
18 17 17 16 16 18 19 19 22 22 22 22 24 25 26 24 24 28 29 26 25 24 27 29 29 31 33 34 34 35 31 33 38 45 52 55 57 51
19 17 17 20 23 24 23 23 25 28 30 29 25 26 28 27 23 24 22 25 28 22 26 32 30 35 37 32 32 34 38 41 46 55 62 63 59 53
20 20 20 20 23 24 26 24 24 24 26 26 29 27 26 22 22 25 24 26 29 28 29 36 27 29 30 31 34 36 43 50 59 61 61 59 56 57
23 22 22 22 22 24 24 31 24 22 25 26 23 26 23 23 26 28 32 31 28 26 22 32 28 33 33 35 41 48 53 55 60 55 44 42 47 51
24 22 21 24 27 31 31 23 23 25 23 22 23 25 28 26 21 19 19 21 25 24 23 25 30 33 34 40 48 48 52 54 56 45 39 40 39 43
24 26 23 27 31 27 22 22 21 19 17 18 20 21 23 22 22 23 25 22 25 26 21 26 31 34 38 42 40 51 56 57 49 38 32 31 34 36
22 22 23 21 18 17 19 21 22 21 22 22 20 18 19 20 19 18 15 20 24 28 27 29 32 34 37 40 45 56 53 49 43 33 30 27 31 33
20 19 20 21 18 21 21 21 21 21 21 17 16 18 19 19 19 19 25 24 23 28 31 29 33 35 36 46 51 55 43 41 34 34 31 32 32 33
21 19 21 19 19 20 20 17 15 18 13 14 16 17 18 18 21 20 21 22 23 26 25 21 27 34 32 44 47 49 40 45 32 29 35 36 33 33
22 20 20 17 17 14 13 12 12 6 11 14 15 14 17 18 19 18 20 21 23 22 21 23 29 26 31 39 38 42 34 40 38 32 27 19 22 29
12 9 10 9 11 14 13 11 9 11 13 13 14 16 17 17 18 18 19 21 21 22 23 24 27 26 28 34 39 36 31 44 41 34 22 18 17 23
12 11 13 13 14 13 12 12 12 13 13 13 14 15 16 17 17 18 17 18 20 22 22 23 30 30 33 34 31 37 39 37 38 33 17 16 18 23
11 10 12 12 12 11 12 12 13 12 15 15 14 16 15 15 16 16 17 18 19 20 20 25 25 27 29 32 33 35 38 34 34 32 21 14 18 18
6 9 9 9 11 11 11 10 11 12 12 13 13 13 13 13 14 15 16 17 19 20 20 19 24 27 22 23 27 38 33 29 28 29 28 16 12 18
9 8 8 8 10 10 9 10 11 11 12 13 9 10 11 12 13 14 16 17 19 19 20 20 21 23 22 23 28 37 46 31 23 23 22 15 10 12
8 8 8 7 8 9 9 9 10 10 10 9 9 9 10 11 12 14 15 17 18 18 18 20 17 23 24 21 26 31 41 48 27 15 14 13 12 10
10 9 7 8 8 8 8 9 9 8 8 8 8 8 9 10 12 13 14 15 17 18 19 17 16 21 27 20 21 28 36 41 51 38 17 14 17 12

GFSNE_850_spd_015.txt.gz
Wind_Speed
13 18 22 18 16 11 7 8 9 10 8 3 4 4 7 10 11 14 16 20 22 23 22 19 15 15 17 19 18 17 19 21 22 22 22 22 21 21
13 13 18 22 21 17 11 10 6 9 12 8 9 7 9 11 13 16 18 18 19 20 20 18 18 18 21 22 21 19 16 16 19 22 23 24 24 23
18 16 16 19 23 18 17 14 10 8 9 11 14 15 15 15 14 17 20 22 23 24 23 20 22 23 24 25 25 22 21 20 18 18 20 23 25 24
20 19 20 19 18 17 20 19 15 14 15 17 18 18 15 14 18 18 17 19 21 25 22 23 25 24 24 25 27 27 28 26 22 20 20 21 20 21
22 22 20 23 25 20 18 19 18 16 16 20 22 21 19 17 17 17 21 22 22 17 18 27 29 28 26 26 25 25 23 26 29 26 26 25 26 26
26 25 23 21 21 23 20 19 16 17 19 22 22 20 23 23 26 25 25 26 29 31 31 28 26 26 27 27 26 24 23 23 24 26 28 29 29 29
24 25 26 24 22 22 23 21 21 22 22 24 25 24 27 29 29 26 28 30 29 28 29 28 27 27 28 30 32 33 34 34 32 28 30 31 32 31
23 24 26 27 27 26 25 21 21 23 25 24 26 27 31 28 24 26 29 30 28 30 30 32 30 26 21 22 23 19 20 22 28 27 28 28 30 36
25 24 27 29 26 24 24 24 23 25 25 24 25 31 26 25 25 27 25 25 29 29 23 25 19 20 23 26 25 24 20 23 27 30 33 36 41 46
25 27 29 26 25 24 23 21 24 23 23 26 29 26 24 23 23 24 26 28 25 21 21 28 26 27 28 27 28 25 26 31 36 37 36 39 41 47
26 30 28 25 23 23 21 23 24 25 25 28 23 22 22 23 24 23 25 29 29 28 26 27 24 27 33 36 30 26 27 27 31 31 35 43 44 44
26 28 28 22 23 21 23 24 24 26 24 20 21 22 23 23 24 26 24 29 28 30 23 24 27 28 35 34 33 31 33 33 33 33 40 44 43 40
21 21 27 26 25 23 21 23 23 21 19 21 24 24 22 16 14 13 13 16 18 22 21 21 25 27 31 37 35 39 36 37 36 37 42 44 43 39
19 20 20 17 23 21 17 18 16 16 17 17 21 17 9 11 11 15 18 19 17 19 20 21 28 28 28 30 37 40 37 32 33 37 42 47 44 42
17 18 15 14 14 16 15 13 12 9 12 15 10 8 11 15 16 19 21 20 21 23 25 16 19 23 24 28 37 37 33 35 35 40 46 47 48 42
17 18 16 11 10 9 7 8 10 10 10 9 12 11 14 18 20 20 18 21 23 16 18 15 18 20 28 25 33 32 30 33 41 43 48 50 48 41
17 15 10 5 3 5 10 12 12 12 9 8 10 14 18 18 19 17 16 17 17 19 21 20 18 19 26 28 34 33 34 36 39 43 49 52 53 43
11 9 7 4 6 11 8 5 6 7 9 13 13 15 16 16 16 14 15 15 18 19 21 22 23 21 25 25 27 38 31 34 39 44 47 48 55 47
7 8 7 7 8 6 4 2 4 5 8 12 13 16 18 18 11 13 14 15 17 19 22 23 18 25 28 29 32 31 29 33 38 46 45 44 49 45
8 7 7 6 8 8 8 10 14 14 13 15 18 18 8 7 10 12 13 16 17 20 25 15 22 25 26 21 31 36 24 31 37 41 43 46 43 36
5 8 9 12 12 12 13 14 15 16 17 14 5 6 6 9 10 11 13 15 17 21 20 18 29 24 20 20 29 32 30 30 32 33 37 34 37 38
3 11 12 10 9 11 13 14 14 14 9 5 6 6 7 9 10 11 14 14 17 21 17 26 19 24 13 20 27 28 33 37 37 32 29 20 23 23
10 8 11 13 14 13 12 10 9 6 5 7 9 10 12 8 9 12 11 12 17 16 20 25 19 18 10 19 25 27 31 36 41 41 35 22 12 12

GFSNE_850_spd_021.txt.gz
Wind_Speed
14 17 18 18 16 15 14 13 14 14 13 9 10 9 7 7 9 11 11 12 13 13 14 14 15 14 14 13 14 15 15 14 13 12 12 11 13 15
14 17 19 19 20 18 16 16 16 13 13 14 9 10 9 9 9 12 13 12 12 13 14 17 18 18 19 18 18 19 19 19 18 17 16 15 14 13
16 17 16 17 18 22 20 19 18 16 16 15 15 13 12 13 12 14 14 16 17 17 18 20 21 22 24 22 21 21 19 20 21 20 21 21 19 17
21 19 19 18 18 18 21 23 20 19 18 17 16 16 17 16 16 17 19 21 23 21 21 24 23 21 21 23 25 28 29 27 25 24 24 22 23 23
22 23 20 20 19 18 19 22 22 21 22 22 20 21 20 17 17 17 18 22 25 25 23 24 26 25 24 23 25 25 26 25 23 22 23 24 26 27
27 25 24 23 21 20 19 19 21 22 21 23 23 22 19 20 20 23 25 26 25 21 21 24 22 21 23 22 23 24 25 27 28 28 28 27 27 28
33 28 25 25 24 23 22 21 20 21 23 23 22 23 24 25 24 26 27 28 25 23 22 19 21 21 17 17 17 14 15 18 20 23 24 25 26 27
35 30 27 25 26 25 23 22 22 20 21 24 23 24 23 24 27 27 27 30 26 24 21 22 21 16 18 20 20 20 20 20 23 22 20 21 24 24
31 28 27 25 26 26 23 21 22 24 23 21 25 23 24 23 24 27 28 23 24 23 25 25 22 23 20 21 21 23 24 24 23 21 22 25 27 29
24 24 23 23 25 25 24 23 23 23 25 22 23 24 29 23 25 26 24 24 24 23 24 30 24 25 21 22 24 24 23 20 23 22 21 24 26 27
25 19 18 20 20 22 23 24 23 21 19 18 21 22 21 24 22 21 23 24 27 24 20 23 19 25 27 29 26 22 22 20 20 22 23 25 26 28
19 19 20 19 19 21 23 22 23 19 17 17 20 20 20 17 21 23 21 19 16 15 17 20 23 24 25 28 25 26 22 22 22 22 24 24 24 28
16 15 16 18 21 24 24 18 16 13 15 16 17 14 11 16 17 12 9 12 16 19 20 20 23 24 24 26 28 26 23 22 23 23 24 28 28 28
16 16 17 18 18 16 12 12 15 15 15 15 10 8 11 14 9 10 12 15 19 22 22 22 24 20 22 26 28 29 22 25 26 27 30 35 34 32
17 18 17 15 12 11 10 11 14 15 15 12 8 11 12 12 12 13 15 19 22 23 18 16 18 19 22 25 28 28 30 29 26 29 34 40 38 36
20 18 15 12 11 10 10 12 12 13 13 12 12 12 13 13 15 16 19 21 23 18 14 13 16 20 23 24 25 29 30 29 28 32 39 42 41 40
18 18 16 14 13 11 12 12 12 12 12 14 16 15 14 17 18 16 18 19 17 18 18 16 16 19 19 21 28 30 26 25 30 36 41 44 44 46
19 17 15 14 11 12 12 12 12 12 11 13 15 17 18 18 15 16 18 14 15 17 18 19 19 17 22 26 25 23 23 28 35 38 39 46 52 51
17 15 15 14 15 12 12 10 8 7 9 12 14 16 16 15 18 18 10 14 16 16 18 18 16 20 27 30 25 20 25 31 37 39 41 46 52 53
16 15 16 16 13 9 10 8 5 5 8 10 11 13 16 17 12 11 13 15 14 16 16 14 15 20 25 25 24 26 26 33 34 39 43 47 48 50
17 16 15 13 10 9 9 8 6 8 10 11 12 14 13 11 11 13 13 13 15 16 16 17 17 20 23 22 23 27 32 30 30 34 42 44 44 50
16 14 13 10 10 11 10 8 6 8 8 7 8 9 11 10 11 14 15 15 15 14 17 17 17 19 22 23 23 27 35 36 29 28 36 36 36 40
12 10 9 11 11 11 10 6 5 8 9 9 9 10 10 10 11 15 15 15 15 15 16 15 17 17 21 23 23 28 33 31 33 37 37 41 38 37

GFSNE_850_spd_024.txt.gz
Wind_Speed
11 14 16 15 14 13 12 11 12 12 13 11 8 8 7 6 5 8 8 9 10 9 8 10 12 14 15 14 14 14 15 15 14 13 13 12 12 12
13 13 15 16 17 18 16 15 15 14 14 13 10 7 8 8 6 7 8 9 9 10 12 14 15 15 17 19 19 19 19 18 18 19 19 19 17 15
17 16 15 15 17 19 19 18 16 15 15 13 13 12 11 10 10 10 11 12 13 15 17 18 18 20 22 20 20 19 21 22 23 23 23 23 23 24
18 20 19 18 18 17 18 19 19 17 16 14 13 13 13 12 13 12 11 11 14 18 21 23 23 22 23 25 24 25 26 27 27 28 26 24 24 24
21 20 19 20 20 20 17 18 17 18 18 18 18 17 16 16 15 15 13 14 19 22 24 20 20 22 24 23 23 23 24 24 24 22 22 24 24 24
25 24 21 22 22 21 21 18 17 16 18 19 18 18 18 17 17 19 22 22 23 21 22 21 20 18 19 20 18 18 19 19 22 23 23 24 26 28
27 28 28 25 23 23 24 21 19 18 18 18 20 21 19 18 20 21 24 25 27 25 23 20 20 20 21 19 18 18 17 17 19 18 20 22 23 24
28 29 30 28 24 22 23 22 21 22 21 20 19 20 20 19 21 23 23 25 26 24 22 22 23 22 20 18 19 20 20 19 21 23 23 22 23 24
29 28 30 28 25 25 21 23 22 21 21 21 23 23 22 20 23 26 29 23 24 20 23 26 23 25 21 20 18 18 21 22 22 21 20 20 19 22
28 26 23 22 21 24 24 23 21 20 20 20 21 19 19 18 23 18 21 21 20 21 23 27 23 19 15 17 20 22 22 20 20 20 19 17 20 23
26 25 25 22 20 20 23 23 19 20 20 20 17 17 17 18 18 18 16 18 22 21 19 18 16 20 22 24 22 19 20 16 15 16 18 18 20 22
30 26 22 18 18 19 21 18 18 19 18 16 15 15 16 16 14 14 16 16 14 12 14 18 21 21 18 21 17 22 20 20 16 16 17 18 19 24
29 24 21 18 18 18 16 17 18 18 15 14 14 14 14 8 10 10 7 7 9 12 15 17 22 22 21 24 25 21 19 18 17 19 21 21 23 26
25 23 21 19 18 17 18 17 17 16 16 15 14 13 9 7 7 7 8 8 11 13 18 19 20 18 20 22 25 26 22 21 24 23 22 24 27 30
23 23 22 19 17 16 15 15 16 17 18 17 13 12 9 9 7 7 10 11 13 15 18 16 17 17 18 21 25 25 27 29 26 23 24 27 33 36
27 26 21 18 14 13 15 16 15 15 17 14 13 13 12 12 11 11 13 14 16 18 14 14 15 18 20 20 21 26 29 29 24 23 30 34 36 34
30 25 20 17 16 17 19 17 16 15 15 13 13 14 14 13 12 13 13 14 16 15 15 14 15 16 17 20 26 28 24 21 23 29 35 38 37 38
29 20 17 18 19 21 19 17 16 15 13 13 13 13 13 13 14 13 13 14 11 13 15 15 16 16 17 23 25 24 21 24 28 34 37 37 42 40
27 17 17 20 20 20 18 17 14 13 11 10 11 12 14 15 13 12 10 7 10 12 13 14 14 18 22 26 30 24 23 25 32 37 37 36 40 47
22 22 23 22 21 21 19 16 15 13 9 9 9 12 15 14 11 8 7 8 10 11 13 13 15 18 19 23 28 29 23 28 34 37 37 38 41 49
25 24 23 23 23 19 16 16 13 10 8 8 9 12 14 12 8 6 6 9 9 12 14 14 15 15 19 21 26 28 28 29 30 29 34 35 42 46
23 22 22 22 20 18 17 15 11 9 7 7 9 11 12 10 9 7 7 7 8 11 13 14 14 17 18 20 25 26 31 34 30 30 25 26 32 37
22 21 18 18 18 18 16 13 10 7 4 6 7 8 10 10 10 9 8 8 7 10 12 15 14 17 16 20 23 27 32 33 36 35 27 28 38 39

GFSNE_850_spd_027.txt.gz
Wind_Speed
13 13 14 15 14 13 12 11 8 7 7 8 7 6 7 7 7 7 9 10 12 13 12 11 11 12 12 13 16 19 19 20 18 16 16 15 15 14
16 15 14 15 16 15 15 14 13 12 10 8 7 7 6 8 8 7 7 8 10 11 11 12 15 16 17 17 19 19 20 21 22 21 19 17 17 18
20 19 16 15 17 17 16 16 16 15 11 9 10 9 10 11 10 9 9 8 9 10 11 14 16 18 18 20 20 21 22 22 22 23 24 24 25 25
20 21 19 19 18 18 18 18 17 17 15 13 11 13 11 12 13 12 12 11 11 13 15 17 17 16 18 20 21 22 21 22 23 23 24 25 24 23
24 22 19 20 21 21 20 19 17 16 17 16 12 14 15 16 16 16 14 14 16 18 20 19 19 18 19 19 19 21 20 19 19 21 24 24 24 23
27 26 25 25 23 22 22 21 20 17 17 18 15 13 15 14 17 15 15 19 21 22 21 19 20 17 18 17 19 18 17 18 18 18 17 18 19 21
31 30 30 28 25 23 22 23 23 21 20 18 15 16 14 18 19 18 21 21 23 23 20 18 14 13 16 19 20 19 18 18 17 18 20 22 24 23
36 33 32 29 27 28 22 22 24 25 24 19 17 17 18 18 20 18 15 16 19 28 22 15 18 16 17 17 19 18 20 20 18 19 20 23 25 24
37 35 34 32 27 29 25 25 25 24 24 23 23 21 20 20 19 20 18 20 18 13 18 14 13 16 16 15 15 14 15 20 21 22 22 22 22 24
40 38 37 32 28 27 28 29 28 25 24 22 20 18 16 16 18 17 18 18 21 16 16 14 14 13 11 12 18 20 20 19 20 21 21 21 21 22
42 40 38 31 31 27 29 30 28 26 23 19 19 17 15 16 16 17 16 16 13 12 13 9 10 11 13 15 12 15 17 18 15 17 18 19 21 24
43 43 36 33 31 28 30 30 28 26 23 20 18 16 15 15 16 16 12 12 12 9 8 8 11 13 13 12 11 14 13 15 15 16 15 19 21 24
44 43 36 33 31 27 29 28 26 23 21 18 16 15 14 14 14 11 10 7 7 8 11 12 12 14 13 16 15 15 14 15 16 17 19 21 21 23
44 38 35 31 28 28 27 24 22 20 20 18 16 15 15 13 12 9 7 8 9 10 14 16 14 13 14 16 17 16 16 17 17 18 18 17 20 23
36 31 29 29 28 26 24 23 23 22 22 19 16 14 13 12 12 11 10 9 11 13 15 18 15 14 14 16 18 17 19 20 20 17 16 18 20 23
33 31 30 28 26 25 24 24 24 24 22 16 14 14 16 15 13 12 11 11 13 10 14 17 15 15 15 14 15 17 19 22 19 17 19 22 24 24
27 26 26 27 29 25 25 27 26 23 19 16 15 16 18 15 14 13 13 13 11 11 11 12 15 14 14 14 14 16 18 18 17 20 21 26 26 23
15 28 28 30 26 27 28 29 24 21 18 15 16 18 16 14 13 14 14 13 10 9 9 12 12 11 10 13 14 14 16 18 20 21 24 26 30 26
35 30 32 32 32 31 31 28 23 21 17 17 18 17 14 13 15 13 13 11 9 8 9 11 11 10 11 13 12 15 17 18 21 24 25 26 30 31
45 37 39 33 33 30 29 23 21 20 18 19 17 16 14 15 15 12 11 9 9 9 9 10 10 10 9 12 16 14 19 20 20 26 26 27 28 28
38 40 35 29 30 29 25 23 20 19 20 18 17 16 16 16 11 10 9 11 11 10 9 9 10 9 11 11 11 15 15 20 26 26 26 27 27 31
39 32 29 29 28 27 25 21 21 22 20 16 15 15 15 12 10 11 9 9 10 10 10 9 9 8 7 8 12 15 17 21 20 24 24 23 23 31
36 34 30 29 27 26 23 23 24 22 18 16 14 14 14 12 12 12 9 9 11 10 9 8 8 9 7 6 11 14 18 21 23 23 19 23 29 31

GFSNE_850_spd_030.txt.gz
Wind_Speed
15 14 13 11 10 9 8 6 7 7 7 8 8 9 7 7 8 7 8 12 11 13 14 14 12 13 15 16 16 16 17 18 19 19 19 17 16 16
17 18 16 13 13 11 10 9 10 11 10 6 6 8 7 7 8 8 7 10 11 12 13 12 14 15 17 20 20 19 21 18 20 21 20 21 20 18
23 22 20 18 14 13 12 12 13 12 11 8 9 11 11 10 9 10 9 9 10 13 12 12 14 17 18 18 18 19 19 19 20 21 22 24 25 25
26 26 24 21 20 17 15 18 15 12 12 13 10 11 11 12 14 14 12 11 11 14 16 15 17 19 18 18 18 19 20 20 20 20 21 22 23 23
28 27 25 23 23 19 20 17 14 15 14 13 13 11 12 11 12 14 13 13 12 15 17 18 18 20 19 18 17 18 20 20 18 17 18 18 19 21
32 30 28 27 25 22 23 21 19 16 15 14 15 15 13 13 13 12 14 12 12 14 17 18 20 20 20 18 19 20 20 19 18 16 16 17 17 17
35 34 33 30 29 26 24 22 21 20 18 19 17 17 16 14 15 11 15 15 16 18 15 15 18 16 16 16 20 20 17 20 20 19 19 20 21 21
41 36 34 33 32 29 27 26 25 22 23 21 20 19 17 15 15 14 12 14 15 13 16 12 12 14 15 17 19 21 26 24 22 21 21 23 23 25
44 38 34 32 34 31 30 29 28 27 24 22 24 22 18 19 17 15 15 16 14 14 17 16 13 17 18 18 19 20 17 19 22 25 25 24 24 24
44 41 41 38 36 32 31 29 31 32 30 28 28 22 22 18 20 17 16 15 13 13 13 13 13 15 15 13 19 22 24 22 22 24 26 25 25 24
50 45 41 40 39 33 31 28 29 30 30 27 25 26 25 21 19 13 14 10 11 11 10 11 9 12 14 16 14 18 21 19 19 19 19 19 21 24
45 48 48 45 42 35 32 30 31 31 28 28 27 28 26 24 21 20 13 12 12 11 11 11 12 13 15 14 10 15 16 17 21 21 21 20 19 21
44 39 37 44 45 39 34 33 35 29 24 21 22 24 23 21 20 19 14 11 9 10 13 10 11 13 15 18 17 17 17 17 18 19 21 21 21 25
45 43 39 44 39 36 36 34 30 25 21 19 19 19 18 17 15 15 14 10 9 12 13 16 12 13 15 16 16 15 17 18 19 21 21 21 22 21
40 39 44 43 31 31 32 31 28 24 19 20 22 19 18 16 17 17 13 11 13 14 12 14 14 13 13 15 15 15 18 20 20 21 22 20 20 21
43 42 38 29 25 27 30 29 28 25 24 23 20 21 17 18 19 14 11 8 10 10 13 16 17 15 13 12 13 15 16 21 22 21 21 22 23 22
52 39 31 28 30 24 27 28 30 30 27 25 23 21 20 20 17 16 11 10 14 12 11 11 13 17 14 13 13 12 15 19 21 22 23 25 23 22
49 35 27 32 27 26 32 31 32 30 26 25 23 22 21 20 18 16 12 13 15 13 11 10 11 14 15 14 16 14 15 18 22 23 24 26 28 24
46 37 36 33 38 42 35 35 31 27 28 23 22 21 21 19 19 16 12 14 14 12 10 11 10 12 14 14 11 13 16 18 20 23 25 26 28 27
44 36 38 33 46 43 41 37 31 26 27 24 23 22 20 18 18 15 14 15 13 12 10 10 11 13 14 14 15 14 15 18 20 24 27 26 26 27
41 38 41 38 42 41 38 32 30 29 25 23 22 20 19 19 17 14 15 16 15 11 10 12 12 17 17 12 13 12 12 19 22 26 25 27 26 26
34 34 34 38 35 30 28 28 28 22 22 23 21 20 18 17 16 16 16 15 12 12 11 12 12 11 12 11 14 14 14 16 19 21 25 23 24 28
32 30 31 35 35 30 25 23 21 22 23 21 20 18 17 16 15 17 15 15 12 11 13 12 11 11 13 11 14 14 15 17 19 19 19 22 27 31

GFSNE_850_spd_033.txt.gz
Wind_Speed
14 13 15 10 10 9 7 6 6 6 7 10 5 10 9 9 10 10 11 14 13 12 13 13 12 12 13 15 17 18 18 17 17 18 18 19 18 18
15 17 16 12 13 11 9 9 8 8 8 3 5 8 8 7 12 11 9 13 14 12 13 13 13 13 14 15 17 18 19 20 19 18 20 21 21 19
20 20 21 19 15 13 13 12 11 10 11 10 9 10 16 16 11 15 12 12 11 15 14 13 13 14 15 16 18 18 16 18 19 20 20 20 21 21
23 24 25 22 23 20 16 16 14 14 14 14 12 12 15 14 14 17 14 12 12 14 14 16 19 18 19 18 19 17 17 16 17 18 18 19 20 21
28 27 27 27 26 22 24 18 17 19 16 15 14 13 14 13 13 12 14 13 14 17 20 17 15 17 20 20 17 17 16 18 19 18 17 17 18 18
34 32 30 30 28 26 25 24 22 18 16 15 14 14 15 15 14 12 13 13 12 11 15 12 21 20 22 19 16 16 14 15 18 20 18 18 20 19
37 37 33 32 30 28 26 26 22 23 17 16 15 16 16 17 16 14 11 12 15 16 15 15 14 16 19 17 17 14 17 18 22 25 23 20 20 21
41 39 39 33 33 33 30 26 26 24 22 17 18 20 19 17 16 16 15 14 15 13 13 12 14 17 16 14 15 18 15 19 24 24 22 21 21 23
44 43 41 34 36 36 34 31 32 31 27 27 25 23 19 16 18 18 19 18 16 13 13 12 12 13 12 16 19 21 23 25 24 25 26 26 25 24
45 45 43 42 39 39 36 36 36 37 32 30 32 26 24 26 23 20 20 21 19 18 14 14 10 12 13 12 18 21 22 23 23 20 20 21 21 21
50 44 43 43 44 45 40 37 35 34 34 31 34 30 28 25 23 15 14 17 13 15 16 14 10 9 11 14 15 18 18 21 22 23 19 19 20 20
56 51 47 47 45 46 46 42 40 37 31 32 34 31 34 28 25 24 17 16 15 14 12 12 11 11 12 13 10 14 16 18 21 21 21 22 22 20
56 52 56 57 52 51 50 47 44 36 32 31 33 30 29 28 26 26 26 22 16 16 17 15 11 11 12 14 13 14 14 13 16 18 20 21 20 23
52 50 46 49 49 48 47 44 40 33 32 32 30 23 22 23 21 21 21 23 16 19 19 17 15 12 11 13 13 12 13 13 14 19 20 20 21 22
59 43 40 43 44 44 43 43 39 35 35 32 28 24 27 20 21 20 20 19 24 24 21 20 16 11 12 13 13 11 13 13 14 18 22 21 19 20
59 53 43 44 46 44 41 37 39 37 36 30 30 22 31 26 26 25 21 22 21 17 15 14 15 14 12 11 10 11 11 12 13 17 21 21 22 21
54 50 46 47 45 46 41 39 43 37 33 28 37 28 22 27 26 25 21 16 15 15 14 15 14 13 11 11 10 8 9 10 11 18 23 23 22 20
41 56 57 50 52 54 49 47 42 31 31 39 37 26 31 29 24 23 21 20 18 16 13 11 12 10 12 15 12 9 9 11 13 18 20 22 23 23
41 50 58 58 58 55 52 47 44 46 46 43 34 29 26 27 25 24 22 19 18 16 14 13 15 14 13 14 7 8 10 11 13 15 18 22 25 25
46 50 56 59 56 54 50 47 42 40 43 40 33 30 30 26 27 24 24 20 18 15 14 14 15 13 13 13 11 9 13 12 11 18 20 26 25 24
53 49 56 55 52 50 49 44 37 33 38 37 33 29 29 29 25 23 22 21 19 16 16 15 15 16 13 13 12 8 7 12 16 19 22 23 26 24
54 56 57 57 54 41 41 32 36 34 36 36 31 30 29 27 23 23 20 19 19 18 16 13 15 13 12 13 12 9 10 11 17 18 22 21 24 24
32 32 52 50 41 35 38 39 36 39 37 32 31 30 28 24 23 20 18 19 17 14 16 15 14 13 14 13 12 11 11 13 13 17 17 22 24 23

GFSNE_850_spd_036.txt.gz
Wind_Speed
15 16 16 14 10 9 9 9 9 8 14 13 11 12 9 10 13 14 15 16 14 13 12 12 12 12 11 11 13 15 16 16 16 17 17 19 19 16
19 18 19 18 15 14 13 12 11 10 10 3 4 8 10 11 12 14 14 13 11 14 13 12 12 12 12 13 15 17 17 17 16 16 17 17 18 18
25 23 22 19 19 17 17 16 14 12 13 10 6 12 12 13 14 16 15 15 14 10 13 13 12 13 14 16 18 18 17 16 16 16 17 19 19 18
29 28 27 24 21 21 20 18 17 16 15 16 15 11 14 15 14 16 19 13 15 16 12 14 16 16 14 17 19 19 15 16 15 16 19 18 19 19
34 30 29 29 25 23 26 26 22 21 22 24 22 19 17 18 15 12 11 11 8 18 19 19 18 16 15 17 15 13 12 11 11 12 15 18 20 19
34 36 33 32 31 27 27 28 28 23 22 25 23 17 17 18 19 16 16 11 12 11 14 14 16 12 17 15 14 12 12 13 13 15 18 20 18 19
38 37 39 38 36 32 29 29 29 31 28 24 22 20 20 20 22 21 17 11 11 12 16 18 14 16 15 19 13 14 14 15 16 18 22 21 18 18
41 40 43 44 42 39 35 31 31 31 32 32 28 25 23 17 22 20 16 15 16 16 16 16 19 16 17 18 16 9 8 11 15 19 23 23 22 21
44 44 43 46 45 44 41 36 32 33 33 30 31 27 25 23 23 23 23 24 25 22 17 19 15 17 14 13 13 15 16 19 18 20 20 17 17 18
48 47 46 45 46 46 45 43 40 40 40 37 35 31 29 29 29 27 26 26 26 24 19 21 15 10 13 18 16 13 16 19 18 18 18 14 15 15
55 53 52 49 48 47 47 48 45 42 41 41 37 35 32 30 30 31 30 25 23 21 13 16 11 12 15 13 16 15 15 16 14 16 15 14 17 16
59 59 58 58 54 50 49 49 50 47 40 40 43 41 40 36 32 32 24 21 18 20 16 17 16 16 15 14 15 13 13 12 14 12 12 15 15 15
61 57 61 62 60 54 50 51 54 47 45 41 40 39 42 40 38 37 32 28 22 21 16 14 18 21 18 14 15 14 15 15 14 13 15 12 13 16
49 48 48 51 55 55 54 53 53 50 49 46 40 41 40 38 34 34 31 28 29 25 22 20 21 21 20 20 19 16 13 14 15 12 10 13 13 12
56 50 42 40 46 46 52 55 53 53 50 46 47 44 39 35 24 19 21 18 27 29 28 31 26 22 22 23 20 16 14 16 13 11 12 14 15 19
42 48 55 52 39 45 49 52 56 58 56 51 50 43 34 26 21 20 29 25 25 26 29 27 21 19 15 16 16 15 13 17 12 9 12 15 19 13
36 38 43 53 57 59 50 54 57 62 62 54 49 44 33 30 20 31 32 31 29 30 28 25 18 16 14 13 11 9 8 8 10 14 16 19 11 10
42 41 44 47 51 55 62 53 56 61 57 53 41 35 33 23 36 38 35 35 30 23 24 21 19 18 15 13 10 10 8 11 16 18 15 11 15 21
35 40 45 50 51 50 57 61 61 60 61 54 49 38 23 38 42 39 36 32 26 24 25 23 22 19 17 17 14 10 11 18 19 15 8 14 21 22
44 42 48 49 49 50 49 53 54 59 56 54 51 28 38 42 44 40 38 34 30 29 26 23 21 20 22 20 15 13 12 15 12 11 13 17 21 21
33 35 40 44 53 58 56 56 62 61 60 55 50 32 44 41 41 38 33 31 28 28 27 24 24 23 20 21 20 18 12 9 9 10 14 16 17 21
21 30 38 38 43 46 54 62 61 52 60 50 48 37 41 40 40 35 35 31 31 30 24 23 21 20 22 24 22 17 10 11 10 10 8 12 14 21
20 26 24 26 31 35 44 55 50 59 40 42 38 37 38 39 35 31 30 31 29 27 26 21 20 19 20 17 12 12 15 13 7 8 8 12 15 20

GFSNE_850_spd_042.txt.gz
Wind_Speed
20 19 18 18 16 14 14 16 16 12 14 15 19 16 15 14 14 12 10 10 10 10 10 9 7 7 7 8 10 12 13 15 16 16 15 13 12 13
18 22 22 21 20 20 18 14 18 17 17 14 13 18 17 17 16 16 15 13 14 12 10 10 8 7 6 8 11 12 13 15 16 15 13 12 13 14
23 22 22 22 23 23 20 19 19 19 20 18 19 14 18 19 21 21 19 17 15 15 13 9 10 11 11 10 8 10 11 12 13 14 13 12 13 15
28 27 26 25 26 27 26 25 24 22 24 23 20 22 21 21 22 23 21 17 16 15 15 18 16 14 14 13 11 10 9 10 9 9 11 13 15 17
28 31 31 29 29 28 29 31 30 28 28 28 27 24 24 22 23 25 26 22 17 15 17 20 20 19 16 14 14 11 11 11 11 13 16 16 17 17
26 28 31 33 33 31 30 32 33 34 33 34 32 30 30 27 26 27 29 27 24 20 19 19 17 17 17 16 15 14 12 11 14 15 16 15 17 18
29 29 30 31 32 34 34 34 33 34 38 38 38 37 36 35 36 34 33 32 29 25 24 24 21 21 22 19 19 15 16 15 16 18 18 18 18 21
37 36 36 36 36 36 37 36 36 35 38 39 44 45 43 41 40 39 37 35 37 31 30 28 25 24 20 22 21 18 17 17 17 15 15 15 17 14
44 42 42 40 39 39 39 38 39 39 39 39 44 47 47 46 43 42 41 39 36 32 32 34 28 28 24 25 24 21 21 18 17 15 13 13 11 11
47 45 45 43 43 42 42 43 43 44 44 43 46 47 48 45 43 42 42 40 37 36 35 36 34 31 26 24 26 22 20 17 17 14 13 11 9 10
47 47 47 48 47 45 45 46 47 51 48 47 46 46 45 46 45 42 45 42 43 43 42 40 39 36 29 27 28 23 19 18 15 14 14 10 8 11
44 47 49 51 50 48 49 49 52 57 54 54 53 51 49 49 48 48 48 49 48 47 50 45 41 38 27 30 28 26 22 20 17 16 14 12 9 11
41 44 45 46 47 48 49 51 55 50 51 55 56 55 52 53 55 54 55 54 53 55 49 47 45 37 27 19 29 28 25 22 20 18 16 14 11 11
40 41 41 41 41 42 43 47 48 46 47 51 56 58 55 57 57 52 57 60 58 59 51 42 37 35 30 36 31 27 29 25 22 20 18 15 15 14
32 35 36 37 39 40 40 42 44 45 48 51 55 59 61 61 61 55 57 56 61 62 62 47 38 33 30 36 39 31 30 27 24 21 21 18 16 16
28 27 28 30 34 38 41 45 46 49 53 55 57 57 58 61 62 62 57 59 59 60 55 42 37 31 32 36 36 33 32 26 24 24 21 18 18 17
25 27 28 28 32 35 38 42 45 48 51 54 58 60 59 59 57 56 61 61 55 47 46 39 35 32 35 36 37 29 31 27 25 23 23 20 18 16
23 24 27 29 32 33 35 38 40 44 49 49 50 55 56 55 55 58 57 59 54 54 53 42 32 33 35 34 26 30 27 24 24 24 21 19 16 14
28 32 34 35 34 34 34 35 37 40 43 48 51 56 49 55 55 62 55 59 53 45 41 44 37 44 42 34 33 29 22 22 23 25 22 19 16 13
27 28 27 26 25 25 26 27 26 28 31 40 47 56 52 49 59 59 54 57 55 55 45 38 33 51 41 38 37 29 21 21 23 22 19 18 14 14
15 14 16 17 18 20 20 20 27 27 31 36 37 38 41 46 51 59 55 43 40 46 34 26 47 36 29 28 30 24 22 20 19 21 18 19 17 16
9 10 13 15 18 20 22 25 24 22 28 34 32 21 22 18 2 16 25 20 5 11 22 37 33 30 26 29 29 25 21 18 19 20 18 19 17 18
9 11 12 14 16 19 19 18 18 18 28 30 23 26 5 6 11 6 3 7 25 27 30 27 24 26 28 28 26 21 19 16 20 19 23 18 17 18

GFSNE_850_spd_045.txt.gz
Wind_Speed
16 18 18 17 16 16 13 14 14 17 16 13 15 12 11 12 10 12 12 11 10 11 11 13 14 11 11 10 10 11 12 13 13 12 12 11 11 11
16 20 22 20 19 19 18 17 17 17 21 17 14 13 13 17 16 17 16 16 16 15 15 14 15 14 11 10 11 11 11 13 14 13 12 12 11 11
20 22 23 23 24 24 24 23 21 21 23 19 19 18 20 18 18 19 19 21 20 19 19 18 16 16 15 14 12 11 11 11 11 11 10 10 11 13
23 25 26 24 26 26 26 27 26 25 26 27 23 22 22 22 22 23 24 25 24 21 19 19 20 21 20 19 18 16 13 11 10 8 9 12 13 15
24 25 28 29 30 29 28 29 31 30 31 32 32 28 26 27 27 28 28 29 29 26 23 22 21 25 24 22 22 21 17 14 13 11 11 14 16 17
28 25 25 28 31 32 32 32 31 32 34 37 39 38 35 32 33 34 32 31 32 31 29 26 22 22 24 25 24 24 21 20 16 13 13 15 16 17
28 28 27 27 26 27 30 32 34 35 36 37 40 42 42 41 42 39 38 37 36 33 32 31 28 26 27 27 26 25 25 21 21 18 16 16 17 19
34 32 32 32 32 32 32 33 35 36 39 41 43 46 46 46 45 44 44 44 45 40 39 39 35 37 33 31 27 26 24 22 22 22 19 17 18 18
39 38 39 39 39 39 39 40 41 43 44 44 46 47 49 48 45 46 48 51 51 48 43 43 40 42 38 35 31 26 24 25 24 25 20 17 15 14
45 44 45 44 44 42 41 43 43 45 45 45 48 51 50 49 51 48 47 49 49 50 49 51 45 42 41 38 34 29 23 23 27 25 21 17 14 12
45 45 44 44 42 41 41 43 43 47 44 44 46 47 47 49 51 52 54 51 55 55 49 49 50 46 41 39 36 33 24 23 24 25 22 17 14 13
39 41 42 42 41 40 42 43 47 49 45 45 46 45 43 43 43 52 56 53 56 50 56 49 48 49 48 46 41 35 28 24 26 28 23 19 16 14
34 36 37 35 34 33 34 37 42 38 38 40 42 46 49 51 47 43 43 48 57 62 58 43 47 50 51 37 43 38 29 28 33 33 27 23 19 16
33 33 32 29 30 31 31 32 33 33 37 41 44 47 48 51 51 52 51 46 50 51 48 55 57 54 55 46 37 38 38 33 40 38 30 25 22 20
26 27 26 26 28 29 29 30 32 36 41 44 48 51 51 50 55 58 59 60 58 56 54 60 62 57 55 53 51 30 40 37 44 40 33 29 26 24
22 23 23 24 24 26 29 31 34 36 37 40 43 46 49 52 54 55 60 60 63 64 61 60 59 62 53 47 45 35 37 43 43 42 35 30 27 24
22 24 25 26 25 24 25 27 31 35 38 39 40 43 47 48 49 48 54 52 56 56 55 55 58 60 55 54 42 31 38 38 40 43 34 31 28 24
22 21 21 21 22 25 30 32 32 32 31 34 36 39 45 47 48 49 52 53 58 53 48 54 55 53 55 45 37 43 38 40 39 35 30 30 29 26
17 17 21 25 26 26 25 24 24 21 20 22 25 30 35 42 48 48 39 39 48 59 57 61 68 64 55 42 39 38 40 40 34 32 28 30 27 25
19 19 20 20 19 18 17 19 22 23 23 23 26 33 39 39 34 32 35 41 39 44 34 28 21 23 39 30 35 33 30 30 33 31 32 28 24 21
14 13 14 13 13 14 16 19 20 21 20 21 26 29 36 30 26 27 25 26 24 21 16 22 27 8 16 31 30 35 31 28 23 26 29 28 26 23
10 9 9 10 12 13 15 17 17 16 19 21 24 25 26 21 15 9 14 10 11 22 25 21 14 15 22 22 25 30 30 27 23 20 18 19 24 25
9 8 9 9 9 11 12 13 14 15 16 17 17 18 16 9 2 11 11 3 8 10 7 12 18 17 24 21 21 26 31 27 24 25 25 23 16 13

GFSNE_850_spd_048.txt.gz
Wind_Speed
15 15 15 15 14 14 15 13 12 14 16 11 11 9 11 12 10 12 13 12 13 12 14 14 14 15 14 14 14 13 13 13 13 14 14 12 10 9
15 16 16 16 15 15 15 15 15 16 19 16 14 15 13 14 14 17 18 17 17 18 18 18 18 17 18 16 14 14 13 13 13 13 13 11 8 8
19 18 17 17 19 20 20 21 20 20 24 22 20 18 19 18 18 20 20 22 22 22 22 21 21 21 20 19 19 18 16 15 14 12 11 8 9 10
19 21 21 20 21 21 23 25 25 25 28 30 27 25 25 24 25 25 24 24 26 25 25 26 23 22 24 24 23 22 20 19 16 15 12 11 11 12
22 21 21 22 25 25 25 26 26 26 29 34 36 34 33 30 31 32 31 31 30 28 28 28 28 26 26 27 28 24 23 23 20 19 15 14 15 15
26 27 26 25 24 25 28 30 30 31 33 36 38 40 39 37 37 40 40 38 37 34 33 33 30 31 30 28 28 26 25 24 24 24 20 19 19 18
26 26 27 26 24 23 25 26 27 30 33 36 40 42 43 44 43 42 45 44 46 41 40 39 35 34 34 33 30 27 26 26 26 26 23 23 23 21
32 31 30 29 28 27 28 29 31 33 35 37 40 43 44 44 45 45 44 44 49 42 37 42 41 42 39 37 35 30 27 27 26 27 24 22 26 23
35 35 34 34 33 33 33 34 37 39 39 40 45 48 49 48 47 49 49 49 51 49 46 47 44 45 42 40 40 38 34 32 30 30 25 21 26 25
41 40 40 40 40 39 39 41 43 43 42 40 42 46 46 46 46 48 47 49 50 50 49 52 49 51 45 43 41 42 43 40 36 33 27 23 27 26
44 44 44 44 43 42 42 43 42 42 40 40 40 41 41 40 35 36 44 47 52 52 51 54 53 53 53 51 45 43 45 47 43 37 22 14 27 27
40 41 41 40 38 36 37 37 41 40 36 34 35 34 33 34 33 33 36 42 49 51 49 47 50 48 48 52 52 49 47 52 49 45 27 16 27 31
34 34 34 31 29 28 29 30 32 28 28 30 32 35 36 40 44 42 38 42 45 52 48 47 52 50 51 42 35 46 54 55 55 51 31 20 33 33
31 31 29 26 25 24 24 26 26 26 26 30 34 36 39 43 43 47 49 51 53 57 55 55 54 52 54 50 49 46 47 56 60 48 28 26 36 35
27 24 21 20 20 22 22 23 24 28 31 35 37 38 37 39 40 40 43 47 52 56 57 52 56 55 62 61 51 49 44 55 54 41 30 36 44 41
21 19 22 22 23 23 23 26 30 31 25 28 31 35 38 38 40 37 39 40 44 49 50 49 49 55 59 62 59 58 52 48 46 32 39 44 43 39
19 22 23 24 25 26 25 22 21 24 28 30 32 33 32 32 33 36 40 42 42 46 53 45 50 53 56 57 50 54 51 55 36 37 46 45 41 40
19 21 21 22 21 20 20 22 26 28 27 26 23 23 26 30 34 36 40 39 36 39 39 43 46 45 37 41 33 29 28 30 26 35 37 41 41 39
19 20 18 17 17 20 24 25 24 21 20 21 22 23 26 29 32 34 32 34 38 40 40 41 38 37 32 12 1 14 32 24 31 34 33 42 40 36
15 15 17 19 22 21 20 19 18 16 16 17 18 19 22 26 27 26 24 29 31 30 26 26 23 19 12 10 20 27 19 20 34 38 35 36 34 32
14 16 18 18 16 15 14 14 14 14 15 16 18 20 19 20 19 14 17 23 26 22 15 15 18 18 18 19 19 24 25 29 31 32 33 34 34 33
14 13 12 12 11 11 11 11 11 12 14 14 16 18 15 16 14 14 19 21 16 8 5 8 6 2 3 8 14 18 22 23 22 22 21 21 31 32
12 11 11 9 9 9 8 9 11 11 12 13 14 15 15 14 16 20 21 14 10 5 5 7 7 2 3 9 10 26 29 29 28 26 27 28 24 18